(202746) = 2003 TR7 = 2007 NO

Discovered at Reedy Creek on 2007-07-08 by J. Broughton.

Orbit

Orbit type: Main Belt

Note: WebGL enabled browser required.

epoch2024-03-31.0
epoch JD2460400.5
perihelion date2020-10-10.87050
perihelion JD2459133.37050
argument of perihelion (°)220.61538
ascending node (°)78.88858
inclination (°)9.62816
eccentricity0.2343848
perihelion distance (AU)2.0534998
Tisserand w.r.t. Jupiter3.3
ΔV w.r.t. Earth (km/sec)9.5
semimajor axis (AU)2.6821566
mean anomaly (°)284.31441
mean daily motion (°/day)0.22437680
aphelion distance (AU)3.311
period (years)4.39
P-vector [x]0.48348592
P-vector [y]-0.75357388
P-vector [z]-0.44538497
Q-vector [x]0.85982942
Q-vector [y]0.50423798
Q-vector [z]0.08023361
absolute magnitude15.92
phase slope0.15
uncertainty0
referenceE2024-GI3
observations used512
oppositions17
arc length (days)9457
first opposition used1998
last opposition used2024
residual rms (arc-secs)0.74
perturbers coarse indicatorM-v
perturbers precise indicator003Ek
first observation date used1998-05-22.0
last observation date used2024-04-12.0
computer nameMPCLINUX
JD of orbit computation2456731.553969
perihelion JD uncertainty (days)9.0292E-05
argument of perihelion uncertainty (°)3.8474E-05
ascending node uncertainty (°)3.4307E-05
inclination uncertainty (°)7.5978E-06
eccentricity uncertainty 3.9077E-08
perihelion distance uncertainty (AU)1.0621E-07
Minimum Orbit Intersection Distances (in AU)
for orbit epoch: 2460400.5, reference: E2024-GI3
Mercury1.60733
Venus1.32805
Earth1.04822
Mars0.64162
Jupiter1.93075
Saturn5.79244
Uranus15.2864
Neptune26.8067

Observations

514 total observations over interval: 1998 05 22.27997 – 2024 03 20.284298
These data are available for download (format description).

Date (UT) J2000 RA J2000 Dec Magn Location Ref
1998 05 22.27997 16 34 08.23 -17 47 39.5 18.8   704 – Lincoln Laboratory ETS, New Mexico MPS 213894
1998 05 22.29946 16 34 06.96 -17 47 43.9 18.9   704 – Lincoln Laboratory ETS, New Mexico MPS 213894
1998 05 22.31906 16 34 05.75 -17 47 46.7 19.8   704 – Lincoln Laboratory ETS, New Mexico MPS 213894
1998 05 22.33882 16 34 04.43 -17 47 50.3 19.5   704 – Lincoln Laboratory ETS, New Mexico MPS 213894
2002 03 20.36549 13 30 29.22 +05 18 16.4 20.3   704 – Lincoln Laboratory ETS, New Mexico MPS 213894
2002 03 20.37731 13 30 28.81 +05 18 20.0 19.9   704 – Lincoln Laboratory ETS, New Mexico MPS 213894
2002 03 20.38953 13 30 28.29 +05 18 23.6 20.2   704 – Lincoln Laboratory ETS, New Mexico MPS 213894
2002 03 20.40281 13 30 27.70 +05 18 27.7 19.9   704 – Lincoln Laboratory ETS, New Mexico MPS 213894
2002 04 12.18768 13 11 17.44 +07 10 15.2 19.9   644 – Palomar Mountain/NEAT MPS 211883
2002 04 12.21134 13 11 16.10 +07 10 20.6 19.7   644 – Palomar Mountain/NEAT MPS 211883
2002 04 12.24618 13 11 14.12 +07 10 28.2 20.0   644 – Palomar Mountain/NEAT MPS 211883
2002 04 16.25442 13 07 32.66 +07 23 48.5 19.3   704 – Lincoln Laboratory ETS, New Mexico MPS 213894
2002 04 16.28209 13 07 31.12 +07 23 54.2 19.7   704 – Lincoln Laboratory ETS, New Mexico MPS 213894
2002 04 16.30994 13 07 29.54 +07 23 58.3 20.2   704 – Lincoln Laboratory ETS, New Mexico MPS 213894
2003 10 01.24410 00 51 44.70 -11 48 32.3 18.6 R 699 – Lowell Observatory-LONEOS MPS 87406
2003 10 01.26078 00 51 43.70 -11 48 36.3   699 – Lowell Observatory-LONEOS MPS 87406
2003 10 01.27745 00 51 42.65 -11 48 38.7   699 – Lowell Observatory-LONEOS MPS 87406
2003 10 01.29410 00 51 41.78 -11 48 43.0   699 – Lowell Observatory-LONEOS MPS 87406
2003 10 03.43558 00 49 42.07 -11 55 12.1 21.1   608 – Haleakala-AMOS MPS 87406
2003 10 03.44631 00 49 41.46 -11 55 13.2 20.5   608 – Haleakala-AMOS MPS 87406
2003 10 03.45653 00 49 40.90 -11 55 15.3 21.2   608 – Haleakala-AMOS MPS 87406
2007 06 11.60668 19 55 50.59 -26 50 47.3 18.1 V E12 – Siding Spring Survey MPS 211883
2007 06 11.61520 19 55 50.55 -26 50 52.1 18.7 V E12 – Siding Spring Survey MPS 211883
2007 06 11.62381 19 55 50.48 -26 50 57.1 18.2 V E12 – Siding Spring Survey MPS 211883
2007 06 11.63244 19 55 50.41 -26 51 01.0 18.1 V E12 – Siding Spring Survey MPS 211883
2007 06 23.66012 19 52 18.44 -28 40 33.4 18.5 V E12 – Siding Spring Survey MPS 211883
2007 06 23.67008 19 52 18.08 -28 40 39.7 18.4 V E12 – Siding Spring Survey MPS 211883
2007 06 23.67999 19 52 17.76 -28 40 45.1 18.5 V E12 – Siding Spring Survey MPS 211883
2007 06 23.68993 19 52 17.36 -28 40 50.5 18.4 V E12 – Siding Spring Survey MPS 211883
2007 07 08.52657 19 42 19.68 -31 00 41.1 17.8 V 428 – Reedy Creek MPS 211883
2007 07 08.54271 19 42 18.77 -31 00 50.1 17.9 V 428 – Reedy Creek MPS 211883
2007 07 09.54147 19 41 29.26 -31 09 42.8 17.7 V 428 – Reedy Creek MPS 211883
2007 07 09.55854 19 41 28.32 -31 09 52.2 17.7 V 428 – Reedy Creek MPS 211883
2007 07 09.57659 19 41 27.45 -31 10 02.0 17.8 V 428 – Reedy Creek MPS 211883
2007 07 15.54199 19 36 19.94 -32 00 10.9 17.7 V E12 – Siding Spring Survey MPS 212041
2008 11 09.44414 04 59 20.89 +19 37 36.2 20.7 V 691 – Steward Observatory, Kitt Peak-Spacewatch MPS 264633
2008 11 09.46178 04 59 20.01 +19 37 37.3 20.9 V 691 – Steward Observatory, Kitt Peak-Spacewatch MPS 264633
2008 11 09.47943 04 59 19.13 +19 37 38.1 20.7 V 691 – Steward Observatory, Kitt Peak-Spacewatch MPS 264633
2008 11 19.38628 04 50 28.79 +19 45 13.6 19.6   704 – Lincoln Laboratory ETS, New Mexico MPS 265293
2008 11 19.41138 04 50 27.24 +19 45 13.1 19.9   704 – Lincoln Laboratory ETS, New Mexico MPS 265293
2008 11 19.42375 04 50 26.56 +19 45 13.4 20.0   704 – Lincoln Laboratory ETS, New Mexico MPS 265293
2008 11 22.20806 04 47 42.54 +19 47 07.0   691 – Steward Observatory, Kitt Peak-Spacewatch MPS 266473
2008 11 22.22572 04 47 41.49 +19 47 07.9   691 – Steward Observatory, Kitt Peak-Spacewatch MPS 266473
2008 11 22.24339 04 47 40.39 +19 47 08.9   691 – Steward Observatory, Kitt Peak-Spacewatch MPS 266473
2008 12 01.22754 04 38 27.31 +19 52 41.8 19.8 V 691 – Steward Observatory, Kitt Peak-Spacewatch MPS 267578
2008 12 01.24525 04 38 26.19 +19 52 42.5 19.9 V 691 – Steward Observatory, Kitt Peak-Spacewatch MPS 267578
2008 12 01.26297 04 38 25.13 +19 52 44.5 20.2 V 691 – Steward Observatory, Kitt Peak-Spacewatch MPS 267578
2008 12 01.27265 04 38 24.46 +19 52 44.6 20.1   704 – Lincoln Laboratory ETS, New Mexico MPS 267578
2008 12 01.28530 04 38 23.63 +19 52 43.6 19.7   704 – Lincoln Laboratory ETS, New Mexico MPS 267578
2008 12 01.29794 04 38 22.94 +19 52 43.8 19.7   704 – Lincoln Laboratory ETS, New Mexico MPS 267578
2008 12 01.31060 04 38 22.16 +19 52 45.2 20.3   704 – Lincoln Laboratory ETS, New Mexico MPS 267578
2008 12 20.23659 04 19 58.72 +20 04 02.0 19.6 V G96 – Mt. Lemmon Survey MPS 269982
2008 12 20.24382 04 19 58.33 +20 04 02.1 19.6 V G96 – Mt. Lemmon Survey MPS 269982
2008 12 20.26597 04 19 57.18 +20 04 02.8 19.8 V G96 – Mt. Lemmon Survey MPS 269982
2008 12 20.27844 04 19 56.53 +20 04 03.3 19.8 V G96 – Mt. Lemmon Survey MPS 269982
2008 12 22.08180 04 18 26.71 +20 05 21.1 20.0 V 691 – Steward Observatory, Kitt Peak-Spacewatch MPS 269982
2008 12 22.10091 04 18 25.81 +20 05 21.8 20.3 V 691 – Steward Observatory, Kitt Peak-Spacewatch MPS 269983
2008 12 22.11976 04 18 24.91 +20 05 23.3 20.1 V 691 – Steward Observatory, Kitt Peak-Spacewatch MPS 269983
2009 01 01.37288 04 11 11.54 +20 14 28.6 20.7 V G96 – Mt. Lemmon Survey MPS 271713
2009 01 01.37817 04 11 11.32 +20 14 29.4 20.8 V G96 – Mt. Lemmon Survey MPS 271713
2009 01 01.38341 04 11 11.07 +20 14 29.3 20.6 V G96 – Mt. Lemmon Survey MPS 271713
2009 01 01.38871 04 11 11.00 +20 14 29.9 20.7 V G96 – Mt. Lemmon Survey MPS 271713
2009 01 15.82813 04 05 23.35 +20 34 10.7 20.1   A77 – Observatoire Chante-Perdrix, Dauban MPS 276243
2009 01 15.84849 04 05 23.03 +20 34 13.6 20.4   A77 – Observatoire Chante-Perdrix, Dauban MPS 276243
2009 01 15.86885 04 05 22.77 +20 34 14.8 20.7   A77 – Observatoire Chante-Perdrix, Dauban MPS 276243
2009 02 20.13573 04 12 45.93 +21 59 24.9 21.8 V G96 – Mt. Lemmon Survey MPS 277474
2009 02 20.14189 04 12 46.15 +21 59 26.4 21.2 V G96 – Mt. Lemmon Survey MPS 277474
2009 02 20.14802 04 12 46.36 +21 59 27.8 21.2 V G96 – Mt. Lemmon Survey MPS 277474
2009 02 20.15417 04 12 46.58 +21 59 28.2 21.2 V G96 – Mt. Lemmon Survey MPS 277474
2010 04 24.241600 08 53 42.869 +27 32 06.94   C51 – WISE MPS 903461
2010 04 24.373904 08 53 46.47 +27 31 31.2   C51 – WISE MPS 326208
2010 04 24.638513 08 53 54.079 +27 30 27.32   C51 – WISE MPS 903461
2010 04 24.770817 08 53 57.91 +27 29 52.7   C51 – WISE MPS 326208
2010 04 24.837032 08 53 59.79 +27 29 38.0   C51 – WISE MPS 326208
2010 04 24.969337 08 54 03.773 +27 29 07.55   C51 – WISE MPS 903461
2010 04 25.101641 08 54 07.61 +27 28 33.7   C51 – WISE MPS 326208
2011 03 26.42694 15 10 44.51 -06 41 41.7 20.4 V 691 – Steward Observatory, Kitt Peak-Spacewatch MPS 376939
2011 03 26.44466 15 10 44.25 -06 41 39.3 20.5 V 691 – Steward Observatory, Kitt Peak-Spacewatch MPS 376939
2011 03 26.46238 15 10 44.02 -06 41 37.4 20.4 V 691 – Steward Observatory, Kitt Peak-Spacewatch MPS 376939
2011 04 27.21231 14 51 41.92 -05 31 51.9 19.2 V 691 – Steward Observatory, Kitt Peak-Spacewatch MPS 381008
2011 04 27.23003 14 51 40.91 -05 31 49.9 19.2 V 691 – Steward Observatory, Kitt Peak-Spacewatch MPS 381008
2011 04 27.24775 14 51 39.88 -05 31 48.1 19.1 V 691 – Steward Observatory, Kitt Peak-Spacewatch MPS 381008
2011 04 27.44470 14 51 28.809 -05 31 26.49 18.6 r F51 – Pan-STARRS 1, Haleakala MPS 381008
2011 04 27.45448 14 51 28.223 -05 31 25.40 19.6 r F51 – Pan-STARRS 1, Haleakala MPS 381008
2011 04 27.46595 14 51 27.594 -05 31 24.25 18.9 i F51 – Pan-STARRS 1, Haleakala MPS 381008
2011 04 27.47665 14 51 26.976 -05 31 23.15 18.9 i F51 – Pan-STARRS 1, Haleakala MPS 381008
2011 04 30.21902 14 48 52.57 -05 26 55.8 19.2 V 691 – Steward Observatory, Kitt Peak-Spacewatch MPS 382003
2011 04 30.23674 14 48 51.51 -05 26 54.1 19.3 V 691 – Steward Observatory, Kitt Peak-Spacewatch MPS 382003
2011 04 30.25448 14 48 50.46 -05 26 52.6 19.3 V 691 – Steward Observatory, Kitt Peak-Spacewatch MPS 382003
